Showing default

NUSAT-52, 66692

Orbit data source: Space-Track

NUSAT-52, 66692 is a payload satellite owned by URUGUS S.A. (AR) in SSO that was launched on Fri, 28 Nov 2025 UTC via an FALCON 9 launch vehicle from the Air Force Western Test Range (AFWTR). Payload-class satellites include a variety of spacecraft equipped with specific instruments for various scientific and technological missions. These include communications satellites like Starlink; space stations such as the ISS; scientific satellites like the Hubble; Earth observation satellites from companies like Planet Labs, Umbra, and HawkEye 360; GPS; miniature CubeSats for education and research; and military/defense satellites.

Loading next visibility...
Identifier
66692, 2025-276AC
Orbit
SSO
Country
Flag of ARAR / ARGN
Related business
Manufacturer
URUGUS S.A.
Mission
Operational Commercial Imaging
Bus & Motor
NEWSAT V, Unknown motor
Mass
41.5 kg wet, 38.5 kg dry
Launch date (UTC)
2025-11-28 (6 months ago)
Launch vehicle
FALCON 9
Launch site
Air Force Western Test Range (AFWTR)
Object type
Payload
Rocket body
Debris
Shape & HBR
Box, 0.4 m
Radar Cross Section
0.542 m²

Expand to show TLE details & history
Last TLE update: 14 hours ago

TLE from 14 hours ago
0 NUSAT-52
1 66692U 25276AC  26144.63899903  .00004373  00000-0  20959-3 0  9990
2 66692  97.4212 218.5862 0004743  97.5285 262.6489 15.19427369 26846
Epoch: 2026-05-24T15:20Z
TLE epoch observation values (Epoch: 2026-05-24T15:20:09.516Z)
Latitude
0.00002°
Longitude
106.30829°
Altitude
511.079 km
Speed
7.608 km/s
True Right ascension
14h 34m 20s
True Declination
0° 00' 00"
Sunlit
Object was in full shadow at epoch
Visualization orbit readout
Latitude
Unknown
Longitude
Unknown
Altitude
Unknown
Speed
Unknown
Apparent Right ascension
Unknown
Apparent Declination
Unknown
Sunlit
N/A
Visualization observer readout
Local Sidereal Time
14:14:09
Azimuth
Unknown
Elevation
Unknown
Doppler factor
Unknown
Orbital elements
Apogee altitude
507.802 km
Perigee altitude
501.273 km
Semi-major axis
6,882.674 km
Eccentricity
0.00047
Inclination
97.4212°
RAAN
218.5862°
Arg. of periapsis
97.5285°
True anomaly
262.595°
Mean anomaly
262.6489°
Eccentric anomaly
262.62195°
Mean motion
3.80108 °/min
Orbital period
94.71 mins
BSTAR
0.00020959
Loading maneuver chart data...
Computing Atmospheric mass density...
Loading historical data...
Loading historical data...
Loading historical data...
Loading historical data...
Loading historical data...
Loading historical data...
Loading historical data...

Documentation

Showing up to 5 results
|